Wind_Speed
18 18 19 21 23 25 26 22 28 18 23 14 22 25 26 27 25 25 30 32 33 36 38 39 40 41 42 42 42 44 44 43 43 43 45 45 47 45 46 46 47 47 47 48
23 23 25 24 25 27 30 28 28 26 23 22 28 23 22 23 25 20 21 26 30 31 33 35 38 40 40 41 41 43 43 43 45 47 45 45 42 43 45 39 40 41 39 40
24 23 24 22 23 25 26 29 31 31 26 30 27 26 25 24 24 22 20 20 25 27 29 32 35 36 37 40 43 45 46 47 44 43 44 50 48 43 40 37 31 30 31 31
19 22 23 22 24 24 25 26 27 28 27 27 26 25 26 28 26 25 26 27 26 22 25 29 33 36 38 41 43 45 46 44 40 37 35 36 46 46 47 47 43 40 43 38
19 21 21 22 22 24 25 27 29 28 28 27 26 23 28 30 29 26 28 29 30 29 24 25 31 34 38 40 40 41 41 41 39 36 36 34 34 36 37 35 41 38 33 32
19 20 21 22 23 25 24 27 25 25 25 24 23 22 25 27 26 26 28 29 30 30 30 27 26 31 35 37 38 39 38 34 34 41 40 40 36 27 28 28 26 28 32 32
16 17 22 22 23 23 23 23 21 22 23 23 22 22 22 22 23 23 25 27 28 28 28 27 27 27 28 29 32 33 28 28 30 29 29 36 32 33 31 28 26 25 26 27
15 16 20 18 18 21 22 21 20 21 21 21 21 21 22 20 22 23 21 22 21 22 23 24 25 27 27 26 26 31 29 26 28 26 27 28 28 25 25 25 26 25 25 27
20 21 22 22 21 21 23 23 22 21 22 21 22 23 23 23 21 22 21 22 22 22 23 24 24 22 25 24 25 28 22 28 32 29 27 24 25 25 25 24 26 28 25 29
22 22 24 25 26 28 28 26 27 26 25 26 24 24 23 23 23 22 24 23 18 20 22 22 23 25 26 27 27 26 28 29 27 28 26 26 25 23 23 25 26 26 28 28
27 26 26 27 30 30 28 28 27 28 28 28 28 27 26 25 24 23 24 21 21 21 22 23 25 24 24 26 27 26 22 23 27 30 28 27 27 25 23 25 27 28 29 29
33 31 30 27 31 31 29 31 31 28 27 28 28 28 30 28 27 26 26 25 23 23 24 24 21 20 26 19 26 26 26 28 24 25 26 27 26 25 23 24 26 27 28 28
37 37 30 28 28 29 27 30 32 31 29 27 29 26 28 29 31 30 29 29 28 26 25 23 21 19 17 16 14 23 23 27 27 25 22 21 23 26 27 24 25 27 28 29
23 23 23 25 25 27 29 29 29 30 32 33 32 35 32 32 33 33 34 32 32 31 30 28 27 25 21 19 19 19 19 21 25 28 28 24 24 25 27 28 29 30 31 31
23 24 22 24 28 30 32 33 33 31 33 35 37 38 39 39 37 36 36 37 35 32 31 29 29 29 26 25 25 26 24 23 20 23 23 24 25 27 28 30 32 33 33 32
27 29 31 32 32 33 34 37 36 36 35 35 34 42 47 50 45 42 40 38 38 38 36 32 29 29 27 27 27 29 29 28 27 28 28 28 29 30 31 32 33 34 35 35
29 31 32 34 35 35 35 35 35 37 38 35 41 47 56 62 58 49 43 40 38 38 36 35 35 32 29 27 27 28 28 29 29 30 31 31 32 33 34 35 36 37 38 39
32 35 39 41 40 37 36 37 36 36 37 38 37 44 32 33 39 33 42 41 37 37 34 30 30 31 32 31 29 28 28 29 29 29 30 32 32 34 35 37 38 40 42 43
32 32 36 36 40 42 39 36 35 34 33 33 28 27 19 19 29 28 30 32 36 38 33 29 27 26 26 27 27 27 28 28 27 27 28 28 30 32 34 37 39 42 44 46
39 41 43 45 48 46 40 42 36 31 28 30 27 25 18 26 33 28 26 20 25 34 35 29 27 27 26 26 26 26 26 26 26 26 28 31 33 34 35 37 38 39 41 43
45 48 49 50 47 48 43 40 40 32 28 29 28 26 26 22 25 28 29 25 24 29 34 30 27 26 26 26 25 25 25 25 25 27 28 27 27 27 29 30 31 33 35 37
56 57 58 55 50 49 47 40 37 37 30 30 30 30 27 25 27 27 26 27 28 26 28 32 29 26 25 27 24 23 23 22 22 21 22 22 23 26 26 28 30 32 33 34
65 66 62 57 51 49 48 44 34 34 32 29 29 33 26 28 23 24 26 25 23 23 26 29 29 27 26 26 23 21 20 20 20 20 21 23 25 28 30 33 34 33 32 35
65 61 53 48 44 43 41 39 35 34 31 30 30 30 25 29 24 23 21 22 24 24 25 27 28 25 23 22 21 19 18 17 18 19 20 22 25 27 30 32 34 35 34 33
49 42 39 34 31 30 29 28 31 32 31 29 32 32 27 25 21 18 20 22 23 23 25 26 26 26 23 21 19 18 16 15 15 14 15 16 18 21 24 27 28 29 30 29
34 28 24 23 22 20 21 23 28 31 30 27 32 34 32 30 30 31 31 26 23 23 23 24 27 26 24 23 21 19 17 18 19 17 18 20 22 23 25 27 27 26 26 24
20 14 14 18 17 18 20 23 27 30 29 25 28 31 31 33 35 32 30 30 27 23 21 22 22 25 27 27 24 24 23 22 21 22 23 24 24 26 27 28 27 25 25 24
Wind_Direction
207 208 215 215 220 228 237 255 249 256 248 242 241 244 249 251 255 262 262 265 265 265 259 254 250 246 248 251 253 256 255 256 260 263 265 267 268 271 271 270 269 268 270 269
227 227 229 234 238 244 248 250 254 257 238 247 248 254 256 253 263 281 279 272 275 269 259 253 251 251 251 250 251 252 256 260 260 259 261 262 263 264 266 261 262 263 262 264
237 242 245 246 248 250 252 251 249 250 251 251 254 250 258 263 266 263 267 276 280 269 255 256 255 256 254 253 253 254 256 257 262 262 262 251 257 258 251 253 258 261 266 265
241 244 246 248 249 248 246 246 248 252 252 251 252 254 261 262 264 269 269 269 270 266 258 259 258 255 253 255 258 259 257 258 259 262 267 265 260 262 264 259 259 262 265 270
244 246 248 246 242 244 249 251 252 253 255 257 259 258 259 261 263 260 261 262 267 272 264 260 259 260 259 259 261 263 265 257 258 265 266 266 263 262 265 264 261 254 261 257
249 246 247 247 244 244 246 252 254 259 263 265 266 263 262 266 262 258 256 258 260 263 267 263 261 266 265 264 262 264 268 264 263 259 259 262 255 256 262 262 266 257 252 248
245 246 247 246 247 250 253 260 260 261 262 264 264 267 262 266 264 260 260 260 263 265 264 262 262 266 266 262 259 256 254 262 265 272 261 259 250 255 250 255 256 256 252 249
249 249 254 259 256 252 257 261 260 262 262 262 262 264 261 261 260 263 267 265 265 265 262 260 258 255 258 263 264 253 249 258 260 267 264 257 245 244 248 249 251 249 254 259
259 261 261 262 262 259 258 263 264 262 267 265 267 266 263 260 261 260 260 260 262 265 259 255 256 259 257 262 263 252 247 262 254 255 255 250 246 244 248 246 246 255 262 258
266 269 267 265 264 262 262 261 261 261 261 264 262 264 265 262 258 259 258 258 260 259 262 265 260 258 259 255 258 261 267 247 255 259 250 248 246 247 250 255 260 257 257 259
269 266 269 273 271 272 273 268 264 263 263 264 262 263 261 262 261 260 260 261 262 260 262 262 260 261 261 259 257 255 258 255 259 254 252 252 250 248 251 257 257 257 258 261
271 271 276 269 272 273 269 267 268 267 269 266 263 264 262 260 260 259 258 260 258 259 257 258 268 258 258 263 256 251 246 253 258 254 256 255 253 252 251 257 260 259 260 263
264 267 269 270 260 263 267 270 273 275 273 270 273 266 267 266 261 258 259 258 256 255 256 258 260 264 274 276 267 254 252 248 252 252 258 260 263 262 256 253 258 263 266 266
270 265 254 253 255 263 265 267 270 275 276 275 272 271 265 263 262 260 255 255 256 255 255 256 258 259 257 263 267 268 259 257 257 245 251 261 264 267 268 267 263 261 261 262
294 290 284 274 272 272 273 271 270 273 280 281 282 277 270 263 260 257 255 253 252 254 254 254 255 258 259 256 254 258 260 262 257 248 253 264 263 261 262 263 266 267 269 270
295 291 287 285 283 280 280 278 274 272 274 275 282 294 280 275 262 254 251 250 251 251 253 255 256 256 255 253 252 253 255 259 260 259 259 260 262 262 262 263 264 266 266 265
293 292 290 289 287 287 287 285 282 277 275 280 289 296 282 268 254 247 245 244 245 249 249 250 251 253 255 255 254 254 255 257 259 262 263 265 267 268 269 270 270 269 268 267
291 291 290 288 284 279 278 280 280 280 279 284 299 310 282 211 218 233 239 240 239 241 244 246 249 250 250 251 252 253 255 257 259 261 265 267 269 271 272 273 273 272 270 270
290 291 294 295 290 282 275 274 271 275 280 276 288 301 277 218 208 233 244 237 241 236 238 242 246 249 248 248 248 251 255 257 259 261 265 268 271 273 274 274 274 274 273 273
290 291 289 288 289 291 290 267 267 268 272 263 263 277 277 228 221 242 232 236 240 241 233 239 241 242 243 247 254 256 256 257 260 265 269 273 275 277 279 280 280 280 279 278
292 290 287 286 287 289 289 284 262 262 259 261 260 249 256 244 236 238 238 242 247 241 230 228 233 240 246 249 253 255 257 260 264 268 271 274 279 283 285 287 288 290 289 285
289 286 284 282 280 280 279 276 267 256 257 254 254 248 246 241 242 234 239 234 234 242 246 243 236 233 236 251 253 255 258 260 263 267 272 277 279 282 285 289 292 290 292 293
290 287 285 281 275 270 270 271 264 250 248 253 243 242 251 230 231 233 230 234 241 241 244 242 241 242 243 246 247 250 253 257 261 267 276 281 284 286 286 283 287 293 295 286
292 290 283 275 269 269 269 271 264 246 241 242 232 234 245 222 237 233 236 242 242 244 239 237 236 236 237 242 243 245 249 254 265 273 281 283 286 293 290 290 285 283 291 293
296 287 281 270 267 268 267 265 258 248 237 238 226 229 232 227 226 234 249 249 245 244 243 238 235 234 228 226 232 242 249 258 263 271 287 298 305 312 306 302 298 294 294 290
296 289 282 278 267 257 251 255 254 248 232 236 227 228 227 227 222 218 226 232 241 243 247 247 240 232 224 229 238 243 255 265 265 277 291 298 302 308 314 312 307 302 301 290
294 291 292 285 268 254 253 251 246 248 228 231 230 225 229 228 221 221 226 226 229 235 235 241 245 245 239 239 238 247 257 264 270 278 287 293 299 304 308 308 307 303 300 295
Height
5654 5656 5658 5660 5663 5665 5666 5669 5668 5673 5671 5673 5672 5672 5672 5673 5675 5676 5675 5675 5675 5674 5675 5677 5679 5680 5682 5684 5686 5689 5690 5691 5693 5693 5694 5695 5697 5697 5698 5699 5700 5700 5700 5700
5652 5654 5656 5657 5659 5661 5662 5663 5661 5663 5667 5664 5665 5667 5667 5667 5668 5668 5667 5666 5664 5663 5664 5666 5669 5671 5672 5674 5676 5678 5680 5681 5682 5682 5683 5684 5685 5686 5687 5687 5688 5688 5687 5689
5647 5649 5650 5652 5653 5653 5654 5655 5655 5656 5659 5658 5660 5659 5660 5660 5660 5660 5659 5658 5656 5655 5656 5658 5660 5662 5664 5665 5667 5668 5669 5670 5671 5671 5671 5672 5673 5675 5676 5676 5676 5678 5678 5678
5642 5643 5645 5647 5646 5647 5647 5647 5648 5649 5650 5651 5652 5652 5651 5650 5652 5653 5652 5650 5649 5648 5650 5651 5653 5655 5656 5657 5657 5658 5658 5659 5660 5660 5660 5660 5661 5663 5665 5666 5666 5666 5668 5669
5639 5640 5641 5640 5640 5640 5640 5641 5641 5641 5642 5642 5643 5645 5642 5643 5643 5644 5643 5643 5643 5642 5642 5643 5645 5646 5646 5647 5648 5648 5648 5649 5650 5650 5651 5651 5652 5653 5654 5654 5654 5656 5658 5658
5633 5634 5634 5634 5634 5634 5634 5633 5635 5635 5635 5635 5635 5636 5635 5635 5634 5634 5634 5635 5635 5635 5635 5636 5636 5636 5635 5636 5637 5638 5638 5638 5639 5640 5641 5642 5643 5643 5644 5645 5646 5647 5649 5650
5627 5628 5627 5628 5629 5629 5629 5630 5628 5628 5628 5627 5628 5628 5627 5627 5627 5626 5626 5626 5626 5627 5627 5628 5628 5628 5628 5627 5627 5628 5629 5631 5631 5631 5631 5631 5633 5635 5638 5639 5640 5641 5642 5644
5621 5622 5622 5622 5622 5624 5623 5622 5622 5621 5622 5621 5621 5620 5620 5620 5620 5619 5619 5618 5619 5619 5619 5619 5620 5620 5620 5620 5620 5620 5621 5623 5623 5623 5624 5625 5626 5627 5630 5632 5633 5635 5636 5637
5616 5615 5615 5615 5616 5615 5615 5616 5616 5616 5615 5615 5614 5614 5614 5614 5613 5613 5612 5612 5612 5612 5612 5613 5613 5613 5613 5613 5613 5613 5614 5615 5616 5617 5618 5618 5619 5621 5622 5624 5626 5627 5628 5630
5611 5611 5609 5609 5609 5608 5608 5609 5608 5608 5608 5607 5608 5607 5607 5607 5607 5606 5606 5605 5605 5605 5605 5605 5605 5606 5606 5606 5606 5607 5607 5608 5609 5610 5611 5612 5613 5614 5615 5617 5618 5620 5621 5622
5605 5605 5604 5603 5600 5600 5600 5599 5600 5600 5599 5599 5599 5599 5599 5600 5600 5600 5599 5599 5598 5598 5598 5598 5598 5598 5598 5598 5599 5600 5601 5602 5603 5604 5605 5605 5607 5608 5609 5610 5611 5612 5613 5614
5598 5598 5598 5597 5593 5591 5591 5590 5589 5590 5590 5590 5591 5591 5590 5591 5591 5592 5592 5592 5592 5591 5591 5591 5590 5591 5592 5590 5592 5593 5594 5596 5597 5598 5599 5600 5600 5601 5601 5603 5604 5604 5604 5604
5589 5589 5589 5589 5587 5584 5584 5583 5581 5581 5581 5582 5579 5581 5581 5581 5581 5583 5583 5584 5584 5585 5585 5584 5585 5585 5585 5585 5585 5585 5587 5588 5590 5591 5592 5593 5593 5594 5594 5595 5595 5596 5596 5596
5581 5581 5579 5578 5577 5576 5576 5575 5574 5571 5570 5570 5570 5568 5569 5570 5571 5572 5573 5574 5575 5575 5576 5577 5577 5578 5579 5579 5579 5579 5580 5581 5582 5582 5584 5586 5586 5587 5587 5587 5587 5587 5587 5587
5574 5572 5572 5570 5568 5567 5566 5564 5562 5561 5560 5557 5556 5555 5555 5557 5558 5559 5561 5563 5565 5565 5566 5568 5568 5569 5571 5572 5572 5572 5573 5574 5575 5575 5576 5578 5578 5579 5579 5580 5579 5579 5578 5578
5568 5565 5562 5560 5558 5556 5555 5552 5551 5549 5547 5545 5543 5541 5538 5539 5542 5545 5548 5550 5553 5555 5556 5558 5559 5560 5561 5562 5563 5564 5565 5566 5567 5568 5568 5569 5569 5570 5570 5570 5570 5569 5569 5568
5559 5556 5553 5550 5547 5544 5541 5539 5537 5535 5533 5530 5526 5522 5517 5517 5520 5527 5533 5537 5540 5543 5546 5547 5549 5551 5552 5553 5554 5555 5556 5557 5558 5559 5559 5560 5560 5560 5560 5560 5559 5559 5558 5557
5550 5546 5543 5541 5537 5533 5530 5526 5524 5521 5519 5517 5511 5501 5489 5491 5502 5510 5518 5523 5527 5531 5535 5537 5538 5540 5542 5543 5545 5546 5547 5548 5549 5549 5550 5550 5550 5550 5550 5549 5548 5548 5546 5545
5539 5536 5532 5527 5521 5518 5517 5514 5512 5510 5508 5507 5503 5500 5495 5493 5496 5502 5507 5512 5516 5520 5524 5526 5528 5530 5532 5534 5536 5537 5538 5539 5540 5541 5541 5541 5541 5540 5539 5538 5537 5535 5534 5532
5527 5522 5518 5513 5508 5504 5501 5500 5499 5498 5497 5496 5494 5494 5492 5492 5493 5495 5499 5502 5505 5509 5513 5516 5519 5521 5523 5526 5527 5528 5529 5530 5530 5531 5531 5531 5530 5529 5527 5526 5524 5523 5521 5518
5510 5504 5499 5494 5491 5488 5485 5484 5483 5484 5484 5484 5484 5485 5486 5486 5487 5489 5491 5494 5496 5499 5502 5505 5509 5512 5514 5517 5518 5519 5520 5521 5521 5522 5521 5521 5520 5519 5518 5516 5514 5511 5509 5506
5489 5482 5476 5472 5471 5469 5466 5466 5466 5468 5471 5472 5473 5475 5476 5477 5479 5481 5483 5485 5488 5490 5493 5496 5499 5503 5505 5508 5509 5510 5511 5512 5512 5513 5513 5512 5511 5510 5508 5506 5504 5500 5498 5495
5465 5458 5453 5449 5448 5447 5447 5448 5450 5452 5456 5459 5461 5464 5467 5468 5470 5472 5475 5477 5479 5482 5484 5487 5491 5493 5496 5498 5500 5501 5502 5503 5504 5504 5504 5503 5502 5501 5499 5497 5494 5491 5488 5485
5440 5432 5427 5425 5425 5427 5429 5432 5435 5437 5441 5445 5450 5454 5456 5460 5462 5464 5466 5469 5472 5474 5477 5479 5482 5485 5487 5490 5492 5494 5495 5496 5496 5496 5496 5495 5494 5491 5489 5487 5484 5481 5478 5475
5417 5411 5408 5407 5409 5412 5415 5419 5422 5424 5428 5432 5437 5442 5447 5450 5453 5457 5459 5462 5464 5466 5469 5472 5475 5477 5480 5483 5485 5487 5488 5488 5489 5489 5488 5487 5486 5483 5481 5478 5474 5471 5468 5466
5401 5397 5396 5396 5398 5401 5404 5407 5409 5412 5417 5421 5426 5431 5435 5441 5445 5449 5453 5456 5458 5460 5462 5465 5467 5470 5473 5476 5478 5480 5481 5481 5482 5481 5480 5479 5477 5475 5473 5470 5466 5463 5460 5458
5391 5391 5390 5390 5391 5393 5394 5397 5399 5401 5406 5411 5415 5420 5425 5430 5435 5440 5444 5448 5451 5454 5456 5459 5461 5463 5466 5468 5470 5472 5473 5473 5473 5473 5472 5471 5469 5467 5465 5462 5459 5456 5453 5451